Tracking 18852 objects as of 24-Nov-2017
HD Live streaming from Space Station
objects crossing your sky now

FENGYUN 1C DEB

Track FENGYUN 1C DEB now!
10-day predictions


NORAD ID: 29931
Int'l Code: 1999-025JD
Perigee: 869.1 km
Apogee: 915.1 km
Inclination: 99.2 °
Period: 102.7 minutes
Semi major axis: 7263 km
RCS: 0.0957 m2 (small)
Launch date: May 10, 1999
Source: People's Republic of China (PRC)
Launch site: Taiyaun Space Center, China (TSC)

Note: This is SATELLITE DEBRIS
aabbcc
Your satellite tracking list
Your tracking list is empty




NASA's NSSDC Master Catalog

Two Line Element Set (TLE):
1 29931U 99025JD  17328.02842429 -.00000080 +00000-0 -22238-4 0  9992
2 29931 099.1944 340.7019 0031668 329.7089 083.5660 14.02566056555781
Source of the keplerian elements: AFSPC